Station History

Weather Underground - logo

Station Historical Data
Daily Summary for August 25, 2017 Units:  English    Metric   Both
« Previous Day
Next Day »
Daily Weekly Monthly Yearly Custom
  High: Low: Average:
Temperature: 99.2 °F 66.6 °F 82.7 °F
Dew Point: 67.1 °F 59.1 °F 63.9 °F
Humidity: 86 % 29 % 57 %
Wind Speed: 5.8 mph 0.0 mph 1.3 mph
Wind Gust: 5.8 mph - -
Wind:- - SW
Pressure: 29.79 in 29.67 in -
Precipitation: 0.00 in    
Historical Graphs
 
 
Tabular Data for August 25, 2017
Time Temperature Dew Point Pressure Wind Wind Speed Wind Gust Humidity Rainfall Rate (Hourly)
00:01 75.5 °F 65.4 °F 29.73 in Calm     71 % 0.00 in
00:06 75.3 °F 65.6 °F 29.73 in Calm     72 % 0.00 in
00:11 75.1 °F 65.5 °F 29.73 in Calm     72 % 0.00 in
00:16 74.9 °F 66.1 °F 29.73 in Calm     74 % 0.00 in
00:21 74.6 °F 65.8 °F 29.73 in Calm     74 % 0.00 in
00:26 74.4 °F 65.6 °F 29.73 in Calm     74 % 0.00 in
00:31 74.1 °F 65.7 °F 29.73 in Calm     75 % 0.00 in
00:36 74.0 °F 66.0 °F 29.73 in Calm     76 % 0.00 in
00:41 73.7 °F 65.7 °F 29.73 in Calm     76 % 0.00 in
00:46 73.6 °F 65.9 °F 29.72 in Calm     77 % 0.00 in
00:51 73.6 °F 65.9 °F 29.72 in Calm     77 % 0.00 in
00:56 73.5 °F 65.8 °F 29.72 in Calm     77 % 0.00 in
01:01 73.6 °F 65.6 °F 29.72 in Calm     76 % 0.00 in
01:06 73.7 °F 65.3 °F 29.72 in Calm     75 % 0.00 in
01:11 73.5 °F 64.7 °F 29.73 in Calm     74 % 0.00 in
01:16 73.5 °F 65.1 °F 29.73 in Calm     75 % 0.00 in
01:21 73.3 °F 64.9 °F 29.73 in Calm     75 % 0.00 in
01:26 73.0 °F 64.6 °F 29.73 in Calm     75 % 0.00 in
01:31 72.8 °F 64.8 °F 29.73 in Calm     76 % 0.00 in
01:36 72.5 °F 64.5 °F 29.72 in Calm     76 % 0.00 in
01:41 72.2 °F 64.2 °F 29.72 in Calm     76 % 0.00 in
01:46 72.1 °F 64.1 °F 29.72 in Calm     76 % 0.00 in
01:51 72.2 °F 64.2 °F 29.72 in Calm     76 % 0.00 in
01:56 72.2 °F 64.2 °F 29.72 in Calm     76 % 0.00 in
02:01 72.1 °F 63.7 °F 29.72 in Calm     75 % 0.00 in
02:06 72.0 °F 63.6 °F 29.72 in Calm     75 % 0.00 in
02:08 71.9 °F 63.5 °F 29.72 in Calm     75 % 0.00 in
02:13 71.8 °F 63.8 °F 29.72 in Calm     76 % 0.00 in
02:18 71.6 °F 64.0 °F 29.72 in Calm     77 % 0.00 in
02:23 71.2 °F 63.2 °F 29.73 in Calm     76 % 0.00 in
02:28 71.0 °F 63.1 °F 29.73 in Calm     76 % 0.00 in
02:33 70.7 °F 63.1 °F 29.73 in Calm     77 % 0.00 in
02:38 70.5 °F 62.9 °F 29.73 in Calm     77 % 0.00 in
02:43 70.5 °F 63.3 °F 29.73 in Calm     78 % 0.00 in
02:48 70.4 °F 63.2 °F 29.72 in Calm     78 % 0.00 in
02:53 70.3 °F 63.5 °F 29.72 in Calm     79 % 0.00 in
02:56 70.2 °F 63.4 °F 29.73 in Calm     79 % 0.00 in
03:01 69.9 °F 63.4 °F 29.73 in Calm     80 % 0.00 in
03:06 69.8 °F 63.3 °F 29.73 in Calm     80 % 0.00 in
03:11 69.7 °F 63.3 °F 29.73 in Calm     80 % 0.00 in
03:16 69.5 °F 63.4 °F 29.73 in Calm     81 % 0.00 in
03:21 69.4 °F 63.3 °F 29.73 in Calm     81 % 0.00 in
03:26 69.2 °F 63.5 °F 29.73 in Calm     82 % 0.00 in
03:31 69.1 °F 63.4 °F 29.73 in Calm     82 % 0.00 in
03:36 68.9 °F 63.2 °F 29.73 in Calm     82 % 0.00 in
03:41 68.6 °F 63.2 °F 29.73 in Calm     83 % 0.00 in
03:46 68.5 °F 63.1 °F 29.73 in Calm     83 % 0.00 in
03:51 68.4 °F 63.4 °F 29.73 in Calm     84 % 0.00 in
03:56 68.1 °F 63.1 °F 29.73 in Calm     84 % 0.00 in
04:01 67.9 °F 62.9 °F 29.73 in Calm     84 % 0.00 in
04:06 67.8 °F 62.8 °F 29.73 in Calm     84 % 0.00 in
04:11 67.7 °F 62.7 °F 29.73 in Calm     84 % 0.00 in
04:16 67.6 °F 62.9 °F 29.74 in Calm     85 % 0.00 in
04:21 67.6 °F 62.9 °F 29.74 in Calm     85 % 0.00 in
04:26 67.5 °F 62.8 °F 29.74 in Calm     85 % 0.00 in
04:31 67.5 °F 62.8 °F 29.74 in Calm     85 % 0.00 in
04:36 67.5 °F 62.8 °F 29.74 in Calm     85 % 0.00 in
04:37 67.5 °F 62.8 °F 29.74 in Calm     85 % 0.00 in
04:42 67.5 °F 62.8 °F 29.74 in Calm     85 % 0.00 in
04:47 67.5 °F 62.8 °F 29.74 in Calm     85 % 0.00 in
04:52 67.4 °F 62.7 °F 29.74 in Calm     85 % 0.00 in
04:57 67.3 °F 62.6 °F 29.74 in Calm     85 % 0.00 in
05:02 67.3 °F 62.6 °F 29.74 in Calm     85 % 0.00 in
05:07 67.2 °F 62.5 °F 29.74 in Calm     85 % 0.00 in
05:12 67.2 °F 62.5 °F 29.75 in Calm     85 % 0.00 in
05:17 67.1 °F 62.8 °F 29.75 in Calm     86 % 0.00 in
05:22 66.9 °F 62.6 °F 29.75 in Calm     86 % 0.00 in
05:27 67.0 °F 62.7 °F 29.75 in Calm     86 % 0.00 in
05:32 66.9 °F 62.6 °F 29.75 in Calm     86 % 0.00 in
05:37 66.9 °F 62.2 °F 29.75 in Calm     85 % 0.00 in
05:42 67.0 °F 62.3 °F 29.75 in Calm     85 % 0.00 in
05:47 67.1 °F 62.4 °F 29.75 in Calm     85 % 0.00 in
05:52 67.1 °F 62.4 °F 29.76 in Calm     85 % 0.00 in
05:57 66.9 °F 61.9 °F 29.76 in Calm     84 % 0.00 in
06:02 66.9 °F 61.9 °F 29.76 in SE 1.2 mph   84 % 0.00 in
06:07 66.8 °F 62.1 °F 29.76 in SE 1.2 mph   85 % 0.00 in
06:12 66.8 °F 61.8 °F 29.76 in Calm     84 % 0.00 in
06:17 66.8 °F 61.8 °F 29.76 in SE 1.2 mph   84 % 0.00 in
06:22 66.7 °F 62.0 °F 29.76 in SE 1.2 mph   85 % 0.00 in
06:27 66.6 °F 61.9 °F 29.76 in Calm     85 % 0.00 in
06:32 66.8 °F 62.5 °F 29.76 in Calm     86 % 0.00 in
06:37 66.7 °F 62.0 °F 29.77 in Calm     85 % 0.00 in
06:42 66.9 °F 61.9 °F 29.77 in Calm     84 % 0.00 in
06:43 67.0 °F 62.3 °F 29.77 in Calm     85 % 0.00 in
06:48 67.1 °F 62.4 °F 29.77 in Calm     85 % 0.00 in
06:53 67.1 °F 62.4 °F 29.77 in Calm     85 % 0.00 in
06:58 67.1 °F 62.4 °F 29.77 in Calm     85 % 0.00 in
07:03 67.1 °F 62.8 °F 29.77 in Calm     86 % 0.00 in
07:08 67.1 °F 62.4 °F 29.77 in Calm     85 % 0.00 in
07:13 67.3 °F 62.3 °F 29.77 in SE 1.2 mph   84 % 0.00 in
07:18 67.6 °F 62.6 °F 29.77 in Calm     84 % 0.00 in
07:23 67.9 °F 62.5 °F 29.77 in Calm     83 % 0.00 in
07:28 68.3 °F 62.9 °F 29.78 in Calm     83 % 0.00 in
07:33 68.8 °F 63.1 °F 29.78 in SE 1.2 mph 1.2 mph 82 % 0.00 in
07:38 69.2 °F 63.1 °F 29.77 in Calm     81 % 0.00 in
07:43 69.9 °F 63.4 °F 29.78 in Calm   0.1 mph 80 % 0.00 in
07:48 70.9 °F 63.3 °F 29.78 in SSW 2.3 mph 2.3 mph 77 % 0.00 in
07:53 72.0 °F 64.0 °F 29.78 in ESE 1.2 mph 1.2 mph 76 % 0.00 in
07:58 72.8 °F 63.6 °F 29.78 in SSE 2.3 mph 2.3 mph 73 % 0.00 in
08:03 73.7 °F 63.7 °F 29.78 in Calm   0.7 mph 71 % 0.00 in
08:08 74.3 °F 63.9 °F 29.78 in ESE 2.0 mph 2.0 mph 70 % 0.00 in
08:23 75.9 °F 62.8 °F 29.79 in South 2.0 mph 2.0 mph 64 % 0.00 in
08:29 76.3 °F 63.2 °F 29.79 in ESE 1.0 mph 1.0 mph 64 % 0.00 in
08:34 76.6 °F 62.6 °F 29.79 in SSE 1.2 mph 1.2 mph 62 % 0.00 in
08:39 77.3 °F 62.3 °F 29.79 in SSW 2.3 mph 2.3 mph 60 % 0.00 in
08:44 77.5 °F 62.5 °F 29.79 in SSE 3.5 mph 3.5 mph 60 % 0.00 in
08:49 77.5 °F 63.5 °F 29.79 in SSW 2.3 mph 2.3 mph 62 % 0.00 in
08:54 77.9 °F 63.4 °F 29.79 in Calm   0.4 mph 61 % 0.00 in
08:59 78.5 °F 62.5 °F 29.79 in ESE 2.3 mph 2.3 mph 58 % 0.00 in
09:04 78.5 °F 62.5 °F 29.79 in ESE 2.3 mph 2.3 mph 58 % 0.00 in
09:09 78.8 °F 63.3 °F 29.79 in SSE 2.3 mph 2.3 mph 59 % 0.00 in
09:14 78.9 °F 62.9 °F 29.79 in ENE 3.5 mph 3.5 mph 58 % 0.00 in
09:19 78.9 °F 62.9 °F 29.79 in South 2.3 mph 2.3 mph 58 % 0.00 in
09:24 79.4 °F 62.8 °F 29.79 in ESE 2.3 mph 2.3 mph 57 % 0.00 in
09:29 80.1 °F 63.0 °F 29.78 in SSE 2.3 mph 2.3 mph 56 % 0.00 in
09:34 80.7 °F 63.5 °F 29.78 in South 3.5 mph 3.5 mph 56 % 0.00 in
09:39 81.1 °F 63.4 °F 29.78 in SE 2.3 mph 2.3 mph 55 % 0.00 in
09:44 81.6 °F 63.9 °F 29.79 in SSE 3.5 mph 3.5 mph 55 % 0.00 in
09:49 82.2 °F 64.4 °F 29.78 in SE 1.2 mph 1.2 mph 55 % 0.00 in
09:51 82.7 °F 64.4 °F 29.79 in East 3.0 mph 3.0 mph 54 % 0.00 in
09:56 82.8 °F 63.4 °F 29.78 in SSW 4.0 mph 4.0 mph 52 % 0.00 in
10:01 83.1 °F 63.7 °F 29.78 in SE 2.0 mph 2.0 mph 52 % 0.00 in
10:06 83.8 °F 63.7 °F 29.78 in SSW 2.3 mph 2.3 mph 51 % 0.00 in
10:11 84.4 °F 63.2 °F 29.78 in SE 3.5 mph 3.5 mph 49 % 0.00 in
10:16 84.9 °F 64.2 °F 29.78 in SSE 3.0 mph 3.0 mph 50 % 0.00 in
10:21 85.0 °F 63.7 °F 29.78 in East 3.5 mph 3.5 mph 49 % 0.00 in
10:26 85.3 °F 64.0 °F 29.78 in SSE 3.5 mph 3.5 mph 49 % 0.00 in
10:31 85.6 °F 64.2 °F 29.78 in South 2.3 mph 2.3 mph 49 % 0.00 in
10:36 85.9 °F 64.5 °F 29.78 in South 3.5 mph 3.5 mph 49 % 0.00 in
10:41 86.4 °F 63.8 °F 29.78 in South 3.5 mph 3.5 mph 47 % 0.00 in
10:46 86.6 °F 64.6 °F 29.78 in SE 2.3 mph 2.3 mph 48 % 0.00 in
10:51 87.1 °F 64.4 °F 29.78 in ESE 3.5 mph 3.5 mph 47 % 0.00 in
10:56 87.8 °F 65.7 °F 29.78 in SSE 1.2 mph   48 % 0.00 in
11:02 88.4 °F 64.4 °F 29.78 in South 2.3 mph 2.3 mph 45 % 0.00 in
11:07 88.4 °F 65.0 °F 29.77 in SW 1.2 mph 1.2 mph 46 % 0.00 in
11:12 88.8 °F 65.4 °F 29.77 in ENE 2.0 mph 2.0 mph 46 % 0.00 in
11:17 89.2 °F 65.1 °F 29.77 in West 3.5 mph 3.5 mph 45 % 0.00 in
11:22 89.0 °F 64.3 °F 29.77 in NW 3.5 mph 3.5 mph 44 % 0.00 in
11:27 89.2 °F 64.4 °F 29.77 in ENE 2.3 mph 2.3 mph 44 % 0.00 in
11:32 89.5 °F 66.6 °F 29.77 in SE 1.2 mph 1.2 mph 47 % 0.00 in
11:37 89.9 °F 65.1 °F 29.77 in SE 2.3 mph 2.3 mph 44 % 0.00 in
11:42 90.4 °F 64.9 °F 29.77 in ESE 2.3 mph 2.3 mph 43 % 0.00 in
11:47 90.4 °F 63.5 °F 29.76 in NE 3.5 mph 3.5 mph 41 % 0.00 in
11:52 90.2 °F 64.0 °F 29.76 in SW 1.2 mph 1.2 mph 42 % 0.00 in
11:57 90.8 °F 64.5 °F 29.76 in NNE 2.0 mph 2.0 mph 42 % 0.00 in
12:02 91.3 °F 65.0 °F 29.76 in South 3.5 mph 3.5 mph 42 % 0.00 in
12:07 91.4 °F 63.7 °F 29.76 in SE 2.3 mph 2.3 mph 40 % 0.00 in
12:12 91.6 °F 63.9 °F 29.75 in SE 3.5 mph 3.5 mph 40 % 0.00 in
12:17 91.9 °F 64.1 °F 29.75 in North 3.5 mph 3.5 mph 40 % 0.00 in
12:22 92.2 °F 64.4 °F 29.75 in SSE 2.3 mph 2.3 mph 40 % 0.00 in
12:23 92.2 °F 64.4 °F 29.75 in NNE 2.3 mph 2.3 mph 40 % 0.00 in
12:28 92.1 °F 61.3 °F 29.75 in West 3.5 mph 3.5 mph 36 % 0.00 in
12:33 92.1 °F 65.0 °F 29.75 in SSE 2.3 mph 2.3 mph 41 % 0.00 in
12:38 92.2 °F 62.9 °F 29.75 in West 2.3 mph 2.3 mph 38 % 0.00 in
12:43 92.6 °F 64.0 °F 29.74 in NW 3.5 mph 3.5 mph 39 % 0.00 in
12:48 92.8 °F 61.9 °F 29.74 in NNW 3.5 mph 3.5 mph 36 % 0.00 in
12:53 92.9 °F 61.2 °F 29.74 in WSW 3.5 mph 3.5 mph 35 % 0.00 in
12:58 92.9 °F 62.0 °F 29.74 in NNW 2.0 mph 2.0 mph 36 % 0.00 in
13:03 93.6 °F 61.8 °F 29.74 in WNW 2.0 mph 2.0 mph 35 % 0.00 in
13:08 94.0 °F 60.5 °F 29.74 in WSW 1.2 mph 1.2 mph 33 % 0.00 in
13:13 94.6 °F 61.9 °F 29.73 in North 2.3 mph 2.3 mph 34 % 0.00 in
13:16 94.6 °F 61.0 °F 29.73 in SW 3.5 mph 3.5 mph 33 % 0.00 in
13:21 94.7 °F 62.0 °F 29.73 in NW 3.5 mph 3.5 mph 34 % 0.00 in
13:26 94.6 °F 60.2 °F 29.73 in SSE 2.3 mph 2.3 mph 32 % 0.00 in
13:31 94.7 °F 61.1 °F 29.73 in NW 3.5 mph 3.5 mph 33 % 0.00 in
13:36 95.0 °F 61.4 °F 29.73 in WNW 3.5 mph 3.5 mph 33 % 0.00 in
13:41 95.3 °F 62.5 °F 29.73 in North 1.2 mph 1.2 mph 34 % 0.00 in
13:46 95.3 °F 61.6 °F 29.73 in West 2.3 mph 2.3 mph 33 % 0.00 in
13:51 95.3 °F 60.8 °F 29.73 in WSW 1.2 mph 1.2 mph 32 % 0.00 in
13:56 96.0 °F 61.4 °F 29.72 in East 2.3 mph 2.3 mph 32 % 0.00 in
14:01 96.5 °F 60.0 °F 29.72 in NNW 2.3 mph 2.3 mph 30 % 0.00 in
14:06 96.9 °F 62.2 °F 29.72 in West 2.0 mph 2.0 mph 32 % 0.00 in
14:11 96.8 °F 59.3 °F 29.72 in NNW 2.3 mph 2.3 mph 29 % 0.00 in
14:16 96.6 °F 59.1 °F 29.72 in North 2.3 mph 2.3 mph 29 % 0.00 in
14:21 97.2 °F 61.5 °F 29.72 in North 2.0 mph 2.0 mph 31 % 0.00 in
14:26 97.4 °F 62.6 °F 29.71 in ESE 1.2 mph 1.2 mph 32 % 0.00 in
14:31 97.7 °F 61.0 °F 29.71 in ESE 1.2 mph 1.2 mph 30 % 0.00 in
14:36 98.0 °F 61.3 °F 29.71 in NNE 1.2 mph 1.2 mph 30 % 0.00 in
14:41 98.0 °F 61.3 °F 29.71 in ESE 2.3 mph 2.3 mph 30 % 0.00 in
14:46 98.4 °F 61.6 °F 29.71 in North 2.3 mph 2.3 mph 30 % 0.00 in
14:51 98.8 °F 62.9 °F 29.70 in North 3.5 mph 3.5 mph 31 % 0.00 in
14:56 99.1 °F 61.3 °F 29.70 in North 1.2 mph 1.2 mph 29 % 0.00 in
15:01 99.2 °F 61.4 °F 29.70 in Calm     29 % 0.00 in
15:06 99.1 °F 63.2 °F 29.70 in WNW 3.5 mph 3.5 mph 31 % 0.00 in
15:11 99.0 °F 63.1 °F 29.70 in West 1.2 mph 1.2 mph 31 % 0.00 in
15:16 98.9 °F 62.1 °F 29.70 in NNW 2.3 mph 2.3 mph 30 % 0.00 in
15:18 98.8 °F 62.9 °F 29.70 in WNW 5.0 mph 5.0 mph 31 % 0.00 in
15:23 98.4 °F 61.6 °F 29.70 in NW 1.2 mph 1.2 mph 30 % 0.00 in
15:28 98.1 °F 60.4 °F 29.69 in NW 3.5 mph 3.5 mph 29 % 0.00 in
15:33 98.1 °F 61.4 °F 29.69 in NW 5.8 mph 5.8 mph 30 % 0.00 in
15:38 98.2 °F 62.4 °F 29.69 in NW 3.0 mph 3.0 mph 31 % 0.00 in
15:43 98.3 °F 62.5 °F 29.69 in West 2.3 mph 2.3 mph 31 % 0.00 in
15:48 98.3 °F 61.5 °F 29.69 in NNW 3.5 mph 3.5 mph 30 % 0.00 in
15:53 98.3 °F 61.5 °F 29.69 in NW 3.5 mph 3.5 mph 30 % 0.00 in
15:58 98.2 °F 62.4 °F 29.69 in West 3.5 mph 3.5 mph 31 % 0.00 in
16:03 98.0 °F 62.2 °F 29.68 in WNW 3.5 mph 3.5 mph 31 % 0.00 in
16:08 98.0 °F 64.0 °F 29.68 in NW 3.5 mph 3.5 mph 33 % 0.00 in
16:13 98.1 °F 64.1 °F 29.68 in WNW 2.3 mph 2.4 mph 33 % 0.00 in
16:18 98.1 °F 64.1 °F 29.68 in NNW 3.5 mph 3.5 mph 33 % 0.00 in
16:23 98.2 °F 63.3 °F 29.68 in NW 3.5 mph 3.5 mph 32 % 0.00 in
16:24 98.2 °F 63.3 °F 29.68 in NW 3.5 mph 3.5 mph 32 % 0.00 in
16:29 98.3 °F 64.3 °F 29.68 in North 3.5 mph 3.5 mph 33 % 0.00 in
16:34 98.5 °F 64.4 °F 29.68 in NNW 5.8 mph 5.8 mph 33 % 0.00 in
16:38 98.3 °F 64.3 °F 29.68 in WNW 3.5 mph 3.5 mph 33 % 0.00 in
16:43 98.3 °F 64.3 °F 29.67 in NW 3.5 mph 3.5 mph 33 % 0.00 in
16:49 98.5 °F 64.4 °F 29.67 in NW 4.6 mph 4.6 mph 33 % 0.00 in
16:54 98.3 °F 64.3 °F 29.67 in NW 3.5 mph 3.5 mph 33 % 0.00 in
16:59 98.4 °F 63.5 °F 29.67 in NNW 3.5 mph 3.5 mph 32 % 0.00 in
17:04 98.4 °F 63.5 °F 29.67 in NW 3.5 mph 3.5 mph 32 % 0.00 in
17:09 98.7 °F 64.6 °F 29.67 in NW 2.3 mph 2.3 mph 33 % 0.00 in
17:14 98.9 °F 64.8 °F 29.67 in NW 2.3 mph 2.3 mph 33 % 0.00 in
17:19 98.9 °F 63.9 °F 29.67 in WNW 3.5 mph 3.5 mph 32 % 0.00 in
17:24 98.7 °F 63.7 °F 29.67 in NW 3.5 mph 3.5 mph 32 % 0.00 in
17:29 98.6 °F 65.4 °F 29.67 in NW 3.5 mph 3.5 mph 34 % 0.00 in
17:34 98.8 °F 64.7 °F 29.67 in NNW 4.0 mph 4.0 mph 33 % 0.00 in
17:39 98.7 °F 64.6 °F 29.67 in NE 2.3 mph 2.3 mph 33 % 0.00 in
17:44 98.8 °F 63.8 °F 29.67 in WNW 1.2 mph 1.2 mph 32 % 0.00 in
17:49 98.7 °F 63.7 °F 29.67 in NW 2.3 mph 2.3 mph 32 % 0.00 in
17:54 98.4 °F 64.3 °F 29.67 in WNW 2.3 mph 2.3 mph 33 % 0.00 in
17:59 98.4 °F 65.2 °F 29.67 in North 3.5 mph 3.5 mph 34 % 0.00 in
18:04 98.4 °F 64.3 °F 29.67 in NW 3.5 mph 3.5 mph 33 % 0.00 in
18:09 98.4 °F 64.3 °F 29.67 in NW 2.3 mph 2.3 mph 33 % 0.00 in
18:14 98.4 °F 64.3 °F 29.67 in NW 3.5 mph 3.5 mph 33 % 0.00 in
18:19 98.1 °F 64.1 °F 29.67 in NW 3.5 mph 3.5 mph 33 % 0.00 in
18:24 97.8 °F 65.5 °F 29.67 in NW 1.2 mph 1.2 mph 35 % 0.00 in
18:29 97.3 °F 64.2 °F 29.67 in NW 3.5 mph 3.5 mph 34 % 0.00 in
18:34 96.8 °F 64.6 °F 29.67 in WNW 1.2 mph 1.2 mph 35 % 0.00 in
18:39 96.4 °F 65.1 °F 29.67 in NNW 1.2 mph 1.2 mph 36 % 0.00 in
18:44 95.9 °F 65.4 °F 29.67 in WNW 2.3 mph 2.3 mph 37 % 0.00 in
18:49 95.4 °F 65.8 °F 29.67 in NW 1.2 mph 1.2 mph 38 % 0.00 in
18:54 94.9 °F 66.1 °F 29.67 in Calm   0.1 mph 39 % 0.00 in
18:59 94.5 °F 65.7 °F 29.67 in WNW 1.2 mph   39 % 0.00 in
19:04 94.0 °F 65.3 °F 29.67 in NW 1.2 mph 1.2 mph 39 % 0.00 in
19:09 93.6 °F 65.6 °F 29.67 in NW 1.2 mph 1.2 mph 40 % 0.00 in
19:14 93.2 °F 65.3 °F 29.67 in Calm     40 % 0.00 in
19:19 92.7 °F 64.8 °F 29.67 in NW 1.2 mph 1.2 mph 40 % 0.00 in
19:24 92.2 °F 65.1 °F 29.67 in Calm     41 % 0.00 in
19:29 91.8 °F 64.7 °F 29.68 in Calm     41 % 0.00 in
19:34 91.3 °F 65.0 °F 29.68 in West 1.2 mph   42 % 0.00 in
19:39 90.7 °F 65.1 °F 29.68 in Calm     43 % 0.00 in
19:40 90.6 °F 64.4 °F 29.68 in Calm     42 % 0.00 in
19:45 90.2 °F 64.7 °F 29.68 in Calm     43 % 0.00 in
19:50 89.7 °F 64.9 °F 29.68 in Calm     44 % 0.00 in
19:55 89.3 °F 64.5 °F 29.68 in Calm     44 % 0.00 in
20:00 89.1 °F 65.0 °F 29.69 in Calm     45 % 0.00 in
20:05 89.1 °F 64.3 °F 29.69 in West 1.2 mph   44 % 0.00 in
20:11 88.8 °F 64.1 °F 29.69 in Calm     44 % 0.00 in
20:18 88.4 °F 63.7 °F 29.69 in Calm     44 % 0.00 in
20:22 88.3 °F 64.3 °F 29.69 in Calm     45 % 0.00 in
20:24 88.1 °F 64.1 °F 29.69 in Calm     45 % 0.00 in
20:27 87.9 °F 64.5 °F 29.69 in Calm     46 % 0.00 in
20:29 87.7 °F 63.7 °F 29.69 in Calm     45 % 0.00 in
20:31 87.6 °F 64.3 °F 29.70 in Calm     46 % 0.00 in
20:32 87.6 °F 64.3 °F 29.70 in Calm     46 % 0.00 in
20:37 87.1 °F 65.0 °F 29.70 in Calm     48 % 0.00 in
20:42 86.5 °F 65.1 °F 29.70 in Calm     49 % 0.00 in
20:47 85.9 °F 65.7 °F 29.70 in Calm     51 % 0.00 in
20:52 85.1 °F 66.0 °F 29.71 in Calm     53 % 0.00 in
20:57 84.0 °F 65.0 °F 29.71 in Calm     53 % 0.00 in
21:02 83.3 °F 65.4 °F 29.71 in Calm     55 % 0.00 in
21:07 82.9 °F 65.6 °F 29.71 in Calm     56 % 0.00 in
21:12 82.5 °F 66.2 °F 29.71 in West 1.2 mph   58 % 0.00 in
21:17 81.8 °F 66.1 °F 29.72 in Calm     59 % 0.00 in
21:22 81.5 °F 66.8 °F 29.72 in Calm     61 % 0.00 in
21:27 81.2 °F 66.5 °F 29.72 in Calm     61 % 0.00 in
21:32 80.9 °F 66.7 °F 29.72 in Calm     62 % 0.00 in
21:37 80.7 °F 66.9 °F 29.73 in West 1.2 mph 1.2 mph 63 % 0.00 in
21:42 80.3 °F 67.0 °F 29.73 in West 1.2 mph 1.2 mph 64 % 0.00 in
21:47 80.0 °F 66.7 °F 29.73 in SE 1.2 mph 1.2 mph 64 % 0.00 in
21:52 79.8 °F 67.0 °F 29.73 in SE 1.2 mph 1.2 mph 65 % 0.00 in
21:57 79.6 °F 66.8 °F 29.74 in Calm     65 % 0.00 in
22:03 79.6 °F 66.8 °F 29.74 in SE 1.2 mph   65 % 0.00 in
22:08 79.4 °F 66.6 °F 29.74 in Calm     65 % 0.00 in
22:13 78.9 °F 66.6 °F 29.74 in Calm     66 % 0.00 in
22:18 78.7 °F 66.8 °F 29.74 in East 1.2 mph   67 % 0.00 in
22:23 78.9 °F 66.6 °F 29.75 in Calm     66 % 0.00 in
22:28 79.0 °F 66.2 °F 29.75 in East 1.2 mph   65 % 0.00 in
22:33 79.2 °F 66.0 °F 29.75 in ESE 1.2 mph   64 % 0.00 in
22:38 79.5 °F 66.3 °F 29.75 in SSE 1.2 mph 1.2 mph 64 % 0.00 in
22:43 79.0 °F 66.7 °F 29.75 in Calm     66 % 0.00 in
22:48 78.4 °F 66.5 °F 29.75 in Calm     67 % 0.00 in
22:53 78.4 °F 66.5 °F 29.75 in SE 1.2 mph 1.2 mph 67 % 0.00 in
22:58 78.7 °F 66.4 °F 29.75 in SE 1.2 mph   66 % 0.00 in
23:03 78.8 °F 66.5 °F 29.76 in Calm     66 % 0.00 in
23:08 78.5 °F 66.6 °F 29.76 in Calm     67 % 0.00 in
23:13 77.7 °F 66.7 °F 29.76 in Calm     69 % 0.00 in
23:18 77.1 °F 66.1 °F 29.76 in Calm     69 % 0.00 in
23:23 77.2 °F 66.2 °F 29.76 in Calm     69 % 0.00 in
23:28 77.2 °F 66.2 °F 29.76 in Calm     69 % 0.00 in
23:33 77.0 °F 66.5 °F 29.76 in Calm     70 % 0.00 in
23:38 76.8 °F 67.1 °F 29.76 in Calm     72 % 0.00 in
23:43 76.5 °F 66.4 °F 29.76 in Calm     71 % 0.00 in
23:48 76.4 °F 66.7 °F 29.76 in Calm     72 % 0.00 in
23:53 76.1 °F 66.4 °F 29.77 in Calm     72 % 0.00 in
23:58 76.0 °F 65.9 °F 29.77 in Calm     71 % 0.00 in
Park Place, Exeter, Tulare County, California, USA
Compliments of Weather Underground - 2.75 mb